Flag for Germany Weather past 2 weeks in Kaarst, North Rhine-Westphalia, Germany

Now
57 °F

Clear.


Feels Like: 56 °F
Forecast: 42 / 54 °F
Wind: 6 mph from Northwest

Location: Monchengladbach Airport

Current Time: Apr 26, 2015 at 11:42:48 PM

Latest Report: Apr 26, 2015 at 8:20 PM


Visibility: 10 mi

Pressure: 29.68 "Hg

Humidity: 82%

Dew point: 52 °F

Location of KaarstLocation

Historic Weather in Kaarst — Graph

°F

Kaarst temperature yesterday

Maximum temperature yesterday: 61 °F (at 7:20 PM)
Minimum temperature yesterday: 52 °F (at 7:50 AM)
Average temperature yesterday: 57 °F

Past Weeks' High & Low Weather Summary

 TemperatureHumidityPressure
High75 °F (Apr 15, 3:20 PM)100% (Apr 12, 7:50 AM)30.48 "Hg (Apr 12, 7:50 AM)
Low37 °F (Apr 12, 7:50 AM)26% (Apr 21, 5:20 PM)29.68 "Hg (Apr 26, 3:50 PM)
Average57 °F58%30.15 "Hg
* Reported Apr 11 8:20 PM — Apr 26 8:20 PM, Kaarst, Weather by CustomWeather, © 2015

Note: Actual official high and low records may vary slightly from our data, if they occured in-between our weather recording intervals... More about our weather records

Advertising

Kaarst weather history for previous 24 hours

 ConditionsComfort  
Time TempWeatherWind HumidityBarometerVisibility
8:20 PM
Sun, Apr 26
57 °FClear.6 mph82%29.68 "Hg10 mi
7:50 PM59 °FClear.3 mph77%29.68 "Hg10 mi
7:20 PM59 °FClear.6 mph77%29.68 "Hg10 mi
6:50 PM59 °FClear.6 mph77%29.68 "Hg10 mi
6:20 PM59 °FClear.3 mph82%29.68 "Hg10 mi
5:50 PM59 °FClear.7 mph82%29.68 "Hg10 mi
5:20 PM59 °FClear.7 mph82%29.68 "Hg10 mi
4:50 PM59 °FClear.6 mph77%29.68 "Hg10 mi
4:20 PM59 °FPassing clouds.10 mph77%29.68 "HgN/A
3:50 PM63 °FScattered showers. Passing clouds.6 mph68%29.68 "Hg5 mi
3:20 PM63 °FPassing clouds.6 mph73%29.71 "HgN/A
2:50 PM61 °FPassing clouds.5 mph77%29.71 "HgN/A
2:20 PM59 °FScattered showers. Passing clouds.6 mph88%29.71 "HgN/A
1:50 PM57 °FPassing clouds.3 mph100%29.71 "HgN/A
1:20 PM57 °FSprinkles. Passing clouds.7 mph88%29.74 "HgN/A
12:50 PM59 °FBroken clouds.7 mph77%29.74 "HgN/A
12:20 PM61 °FBroken clouds.7 mph72%29.74 "HgN/A
11:50 AM59 °FScattered clouds.6 mph77%29.74 "HgN/A
11:20 AM59 °FBroken clouds.7 mph77%29.74 "HgN/A
10:50 AM59 °FBroken clouds.8 mph77%29.74 "HgN/A
10:20 AM59 °FBroken clouds.7 mph77%29.74 "HgN/A
9:50 AM57 °FPartly sunny.9 mph88%29.74 "HgN/A
9:20 AM57 °FScattered clouds.7 mph88%29.74 "HgN/A
8:50 AM55 °FScattered clouds.7 mph100%29.74 "HgN/A
8:20 AM55 °FPartly sunny.5 mph100%29.74 "HgN/A
7:50 AM55 °FPartly sunny.3 mph100%29.74 "HgN/A
Weather by CustomWeather, © 2015

See weather overviewHow to use our weather pages